AMAZONAS 4A (39616 NORAD) Tracking and Keplerian Element Data

This shows tracking and keplerian element data for the satellite.

Feedback or suggestion? Click here.




ElementValue
Catalog39616
NameAMAZONAS 4A
Epoch Orbit3971
Epoch Day34.78910976
Epoch Year2025
RAAN143.2604
Inclination0.0639
Eccentricity0.0003769
Argument of Perigee154.1504
Mean Anonmoly46.8206
Mean Motion1.00268835
Decay Rate-2.47E-06
L11 39616U 14011A 25034.78910976 -.00000247 00000+0 00000+0 0 9995
L22 39616 0.0639 143.2604 0003769 154.1504 46.8206 1.00268835 39719



Live tracking and technical data element details for AMAZONAS 4A (NORAD 39616). AMAZONAS 4A can be tracked NOW for your location showing map with azimuth and elevation plus other details from your city location.







IsCatalogInMostPopularTable: catalog: 39616, numindb: 524
Update: records affected: 1



GetName: 39616 AMAZONAS 4A

Hit Count: updated at: Thu, 15 May 2025 10:26:18 GMT